Weather History for KMBS - August, 2014

Change the Weather History Date:

Friday, August 1, 2014

  Actual Average Record
Temperature  
Mean Temperature 73 °F 70 °F  
Max Temperature 83 °F 81 °F 97 °F (2006)
Min Temperature 62 °F 60 °F 50 °F (1998)
Degree Days  
Heating Degree Days 0    
Month to date heating degree days 0  
Since 1 June heating degree days 29  
Since 1 July heating degree days 15  
Cooling Degree Days 8    
Month to date cooling degree days 8  
Year to date cooling degree days 339  
Since 1 June cooling degree days 295  
Growing Degree Days 22 (Base 50)    
Moisture  
Dew Point 61 °F    
Average Humidity 67    
Maximum Humidity 87    
Minimum Humidity 46    
Precipitation  
Precipitation 0.01 in 0.09 in 0.64 in (2008)
Month to date precipitation 0.01 0.09  
Year to date precipitation 17.43 17.30  
Snow  
Snow 0.00 in - - ()
Month to date snowfall 0.0  
Since 1 June snowfall 0.0  
Since 1 July snowfall 0.0  
Snow Depth 0.00 in    
Sea Level Pressure  
Sea Level Pressure 30.07 in    
Wind  
Wind Speed 6 mph (SW)    
Max Wind Speed 15 mph    
Max Gust Speed 19 mph    
Visibility 10 miles    
Events Rain , Thunderstorm    
T = Trace of Precipitation, MM = Missing Value Source: NWS Daily Summary

Daily Weather History Graph

Daily Weather History Graph

Search for Another Location

Airport or City:

Trip Planner

Search our weather history database for the weather conditions in past years. The results will help you decide how hot, cold, wet, or windy it might be!

Date:

Astronomy

Aug. 01, 2014 Rise Set
Actual Time 6:25 AM EDT 8:58 PM EDT
Civil Twilight 5:53 AM EDT 9:31 PM EDT
Nautical Twilight 5:12 AM EDT 10:11 PM EDT
Astronomical Twilight 4:25 AM EDT 10:57 PM EDT
Moon 12:00 PM EDT (8/1) 11:30 PM EDT (8/1)
Length of Visible Light 15h 38m
Length of Day
14h 33m
Waxing Crescent, 27% of the Moon is Illuminated
Aug 1
Waxing Crescent
Aug 3
First Quarter
Aug 10
Full
Aug 17
Last Quarter
Aug 25
New

Hourly Weather History & Observations

Time (EDT) Temp. Heat Index Dew Point Humidity Pressure Visibility Wind Dir Wind Speed Gust Speed Precip Events Conditions
12:53 AM 66.0 °F - 60.1 °F 81% 30.02 in 10.0 mi Calm Calm - N/A   Scattered Clouds
1:53 AM 64.9 °F - 60.1 °F 84% 30.03 in 10.0 mi SSW 3.5 mph - N/A   Mostly Cloudy
2:53 AM 64.9 °F - 60.1 °F 84% 30.03 in 10.0 mi SW 4.6 mph - N/A   Mostly Cloudy
3:53 AM 64.9 °F - 60.1 °F 84% 30.02 in 10.0 mi SSW 3.5 mph - N/A   Mostly Cloudy
4:53 AM 64.0 °F - 59.0 °F 84% 30.03 in 10.0 mi South 4.6 mph - N/A   Mostly Cloudy
5:53 AM 63.0 °F - 57.9 °F 84% 30.04 in 10.0 mi SW 5.8 mph - N/A   Partly Cloudy
6:53 AM 63.0 °F - 57.9 °F 84% 30.05 in 10.0 mi SW 8.1 mph - N/A   Clear
7:53 AM 64.0 °F - 60.1 °F 87% 30.06 in 10.0 mi SW 6.9 mph - N/A   Clear
8:53 AM 68.0 °F - 61.0 °F 78% 30.07 in 10.0 mi WSW 6.9 mph - N/A   Clear
9:53 AM 70.0 °F - 62.1 °F 76% 30.08 in 10.0 mi SW 6.9 mph - N/A   Scattered Clouds
10:53 AM 73.9 °F - 63.0 °F 68% 30.08 in 10.0 mi West 4.6 mph - N/A   Mostly Cloudy
11:53 AM 75.0 °F - 63.0 °F 66% 30.09 in 10.0 mi SSW 3.5 mph - N/A   Partly Cloudy
12:53 PM 79.0 °F - 64.0 °F 60% 30.08 in 10.0 mi Variable 4.6 mph - N/A   Clear
1:53 PM 80.6 °F 81.8 °F 62.6 °F 54% 30.08 in 10.0 mi West 5.8 mph - N/A   Mostly Cloudy
2:53 PM 81.0 °F 81.3 °F 59.0 °F 47% 30.06 in 10.0 mi West 5.8 mph - N/A   Partly Cloudy
3:53 PM 81.0 °F 81.6 °F 60.1 °F 49% 30.06 in 10.0 mi SW 6.9 mph - N/A   Clear
4:53 PM 82.0 °F 82.1 °F 59.0 °F 45% 30.06 in 10.0 mi SSW 5.8 mph - N/A   Clear
6:53 PM 78.1 °F - 62.1 °F 58% 30.06 in 10.0 mi SW 11.5 mph - N/A   Clear
7:26 PM 75.9 °F - 62.1 °F 62% 30.08 in 10.0 mi SW 6.9 mph - N/A Thunderstorm Clear
7:53 PM 73.0 °F - 62.1 °F 68% 30.09 in 10.0 mi West 11.5 mph 18.4 mph 0.00 in Rain , Thunderstorm Light Rain
8:53 PM 72.0 °F - 63.0 °F 73% 30.10 in 10.0 mi North 9.2 mph - 0.01 in   Mostly Cloudy
9:09 PM 70.0 °F - 64.0 °F 81% 30.10 in 10.0 mi NNW 6.9 mph - N/A Thunderstorm Partly Cloudy
9:24 PM 70.0 °F - 63.0 °F 78% 30.10 in 10.0 mi South 5.8 mph - N/A   Clear
9:53 PM 68.0 °F - 63.0 °F 84% 30.10 in 10.0 mi ESE 3.5 mph - N/A   Clear
10:53 PM 68.0 °F - 61.0 °F 78% 30.09 in 10.0 mi Calm Calm - N/A   Clear
11:53 PM 64.0 °F - 61.0 °F 90% 30.10 in 10.0 mi SE 5.8 mph - N/A   Clear